Time,TemperatureF,DewpointF,PressureIn,WindDirection,WindDirectionDegrees,WindSpeedMPH,WindSpeedGustMPH,Humidity,HourlyPrecipIn,Conditions,Clouds,dailyrainin,SoftwareType,DateUTC
2013-04-25 00:02:00,30.0,21.0,29.98,ESE,123,5.0,-999.0,70,-99.99,,,-99.99,,2013-04-25 06:02:00,
2013-04-25 00:11:00,30.0,21.0,29.98,ESE,123,5.0,-999.0,70,-99.99,,,-99.99,,2013-04-25 06:11:00,
2013-04-25 00:22:00,31.0,21.0,29.98,ESE,118,6.0,-999.0,66,-99.99,,,-99.99,,2013-04-25 06:22:00,
2013-04-25 00:31:00,33.0,21.0,29.97,ESE,115,6.0,-999.0,62,-99.99,,,-99.99,,2013-04-25 06:31:00,
2013-04-25 00:42:00,33.0,21.0,29.97,ESE,115,6.0,-999.0,62,-99.99,,,-99.99,,2013-04-25 06:42:00,
2013-04-25 00:52:00,33.0,21.0,29.97,SE,130,7.0,-999.0,62,-99.99,,,-99.99,,2013-04-25 06:52:00,
2013-04-25 01:01:00,33.0,21.0,29.96,South,176,10.0,-999.0,61,-99.99,,,-99.99,,2013-04-25 07:01:00,
2013-04-25 01:12:00,33.0,21.0,29.96,South,176,10.0,-999.0,61,-99.99,,,-99.99,,2013-04-25 07:12:00,
2013-04-25 01:22:00,34.0,22.0,29.96,South,178,13.0,-999.0,60,-99.99,,,-99.99,,2013-04-25 07:22:00,
2013-04-25 01:32:00,34.0,21.0,29.95,SSE,167,14.0,-999.0,59,-99.99,,,-99.99,,2013-04-25 07:32:00,
2013-04-25 01:42:00,34.0,21.0,29.95,SSE,167,14.0,-999.0,59,-99.99,,,-99.99,,2013-04-25 07:42:00,
2013-04-25 01:52:00,33.0,21.0,29.95,South,171,12.0,-999.0,61,-99.99,,,-99.99,,2013-04-25 07:52:00,
2013-04-25 02:01:00,33.0,22.0,29.94,SSE,157,9.0,-999.0,63,-99.99,,,-99.99,,2013-04-25 08:01:00,
2013-04-25 02:11:00,33.0,22.0,29.94,SSE,157,9.0,-999.0,63,-99.99,,,-99.99,,2013-04-25 08:11:00,
2013-04-25 02:21:00,32.0,21.0,29.93,SSE,157,9.0,-999.0,64,-99.99,,,-99.99,,2013-04-25 08:21:00,
2013-04-25 02:31:00,32.0,22.0,29.93,SE,130,6.0,-999.0,65,-99.99,,,-99.99,,2013-04-25 08:31:00,
2013-04-25 02:41:00,32.0,22.0,29.93,SE,130,6.0,-999.0,65,-99.99,,,-99.99,,2013-04-25 08:41:00,
2013-04-25 02:52:00,31.0,21.0,29.92,SE,132,7.0,-999.0,67,-99.99,,,-99.99,,2013-04-25 08:52:00,
2013-04-25 03:01:00,31.0,22.0,29.91,SE,129,7.0,-999.0,69,-99.99,,,-99.99,,2013-04-25 09:01:00,
2013-04-25 03:11:00,31.0,22.0,29.91,SE,129,7.0,-999.0,69,-99.99,,,-99.99,,2013-04-25 09:11:00,
2013-04-25 03:21:00,31.0,22.0,29.91,ESE,122,7.0,-999.0,69,-99.99,,,-99.99,,2013-04-25 09:21:00,
2013-04-25 03:33:00,30.0,21.0,29.90,SE,126,5.0,-999.0,70,-99.99,,,-99.99,,2013-04-25 09:33:00,
2013-04-25 03:42:00,30.0,21.0,29.90,SE,126,5.0,-999.0,70,-99.99,,,-99.99,,2013-04-25 09:42:00,
2013-04-25 03:52:00,30.0,22.0,29.90,SE,126,4.0,-999.0,71,-99.99,,,-99.99,,2013-04-25 09:52:00,
2013-04-25 04:02:00,30.0,22.0,29.90,SE,126,4.0,-999.0,71,-99.99,,,-99.99,,2013-04-25 10:02:00,
2013-04-25 04:12:00,30.0,22.0,29.90,SE,126,4.0,-999.0,71,-99.99,,,-99.99,,2013-04-25 10:12:00,
2013-04-25 04:22:00,30.0,22.0,29.89,SE,128,5.0,-999.0,71,-99.99,,,-99.99,,2013-04-25 10:22:00,
2013-04-25 04:32:00,30.0,22.0,29.89,SE,128,5.0,-999.0,71,-99.99,,,-99.99,,2013-04-25 10:32:00,
2013-04-25 04:42:00,30.0,22.0,29.89,SE,128,5.0,-999.0,71,-99.99,,,-99.99,,2013-04-25 10:42:00,
2013-04-25 04:52:00,30.0,22.0,29.88,SE,129,5.0,-999.0,72,-99.99,,,-99.99,,2013-04-25 10:52:00,
2013-04-25 05:02:00,30.0,23.0,29.88,SE,128,6.0,-999.0,74,-99.99,,,-99.99,,2013-04-25 11:02:00,
2013-04-25 05:12:00,30.0,23.0,29.88,SE,128,6.0,-999.0,74,-99.99,,,-99.99,,2013-04-25 11:12:00,
2013-04-25 05:22:00,29.0,22.0,29.87,ESE,119,7.0,-999.0,74,-99.99,,,-99.99,,2013-04-25 11:22:00,
2013-04-25 05:32:00,31.0,23.0,29.87,East,98,6.0,-999.0,73,-99.99,,,-99.99,,2013-04-25 11:32:00,
2013-04-25 05:42:00,31.0,23.0,29.87,East,98,6.0,-999.0,73,-99.99,,,-99.99,,2013-04-25 11:42:00,
2013-04-25 05:51:00,32.0,23.0,29.86,ESE,113,8.0,-999.0,70,-99.99,,,-99.99,,2013-04-25 11:51:00,
2013-04-25 06:01:00,34.0,24.0,29.85,ESE,112,11.0,-999.0,67,-99.99,,,-99.99,,2013-04-25 12:01:00,
2013-04-25 06:12:00,34.0,24.0,29.85,ESE,112,11.0,-999.0,67,-99.99,,,-99.99,,2013-04-25 12:12:00,
2013-04-25 06:21:00,34.0,24.0,29.85,East,93,10.0,-999.0,67,-99.99,,,-99.99,,2013-04-25 12:21:00,
2013-04-25 06:32:00,33.0,24.0,29.85,ESE,111,8.0,-999.0,69,-99.99,,,-99.99,,2013-04-25 12:32:00,
2013-04-25 06:42:00,33.0,24.0,29.85,ESE,111,8.0,-999.0,69,-99.99,,,-99.99,,2013-04-25 12:42:00,
2013-04-25 06:51:00,33.0,25.0,29.84,SE,143,10.0,-999.0,71,-99.99,,,-99.99,,2013-04-25 12:51:00,
2013-04-25 07:02:00,34.0,26.0,29.85,SE,142,1.0,-999.0,71,-99.99,,,-99.99,,2013-04-25 13:02:00,
2013-04-25 07:11:00,34.0,26.0,29.85,SE,142,1.0,-999.0,71,-99.99,,,-99.99,,2013-04-25 13:11:00,
2013-04-25 07:21:00,34.0,26.0,29.84,SE,144,9.0,-999.0,71,-99.99,,,-99.99,,2013-04-25 13:21:00,
2013-04-25 07:32:00,35.0,27.0,29.84,SE,137,5.0,-999.0,71,-99.99,,,-99.99,,2013-04-25 13:32:00,
2013-04-25 07:42:00,35.0,27.0,29.84,SE,137,5.0,-999.0,71,-99.99,,,-99.99,,2013-04-25 13:42:00,
2013-04-25 07:52:00,36.0,27.0,29.83,SSE,165,3.0,-999.0,70,-99.99,,,-99.99,,2013-04-25 13:52:00,
2013-04-25 08:02:00,37.0,27.0,29.83,SSE,151,4.0,-999.0,68,-99.99,,,-99.99,,2013-04-25 14:02:00,
2013-04-25 08:11:00,37.0,27.0,29.83,SSE,151,4.0,-999.0,68,-99.99,,,-99.99,,2013-04-25 14:11:00,
2013-04-25 08:21:00,37.0,27.0,29.83,South,171,4.0,-999.0,68,-99.99,,,-99.99,,2013-04-25 14:21:00,
2013-04-25 08:32:00,40.0,30.0,29.83,South,170,3.0,-999.0,66,-99.99,,,-99.99,,2013-04-25 14:32:00,
2013-04-25 08:42:00,40.0,30.0,29.83,South,170,3.0,-999.0,66,-99.99,,,-99.99,,2013-04-25 14:42:00,
2013-04-25 08:51:00,42.0,30.0,29.82,South,182,4.0,-999.0,61,-99.99,,,-99.99,,2013-04-25 14:51:00,
2013-04-25 09:02:00,42.0,30.0,29.82,South,182,4.0,-999.0,61,-99.99,,,-99.99,,2013-04-25 15:02:00,
2013-04-25 09:11:00,42.0,30.0,29.82,South,182,4.0,-999.0,61,-99.99,,,-99.99,,2013-04-25 15:11:00,
2013-04-25 09:21:00,45.0,30.0,29.81,SW,224,4.0,-999.0,55,-99.99,,,-99.99,,2013-04-25 15:21:00,
2013-04-25 09:33:00,47.0,30.0,29.81,SSW,209,4.0,-999.0,52,-99.99,,,-99.99,,2013-04-25 15:33:00,
2013-04-25 09:42:00,47.0,30.0,29.81,SSW,209,4.0,-999.0,52,-99.99,,,-99.99,,2013-04-25 15:42:00,
2013-04-25 09:53:00,49.0,30.0,29.80,WSW,240,6.0,-999.0,48,-99.99,,,-99.99,,2013-04-25 15:53:00,
2013-04-25 10:02:00,50.0,31.0,29.80,WSW,250,8.0,-999.0,47,-99.99,,,-99.99,,2013-04-25 16:02:00,
2013-04-25 10:13:00,50.0,31.0,29.80,WSW,250,8.0,-999.0,47,-99.99,,,-99.99,,2013-04-25 16:13:00,
2013-04-25 10:24:00,52.0,31.0,29.79,WSW,251,7.0,-999.0,44,-99.99,,,-99.99,,2013-04-25 16:24:00,
2013-04-25 10:32:00,53.0,32.0,29.79,WSW,251,8.0,-999.0,44,-99.99,,,-99.99,,2013-04-25 16:32:00,
2013-04-25 10:43:00,53.0,32.0,29.79,WSW,251,8.0,-999.0,44,-99.99,,,-99.99,,2013-04-25 16:43:00,
2013-04-25 10:52:00,54.0,32.0,29.79,WSW,244,10.0,-999.0,43,-99.99,,,-99.99,,2013-04-25 16:52:00,
2013-04-25 11:02:00,56.0,33.0,29.78,WSW,248,10.0,-999.0,41,-99.99,,,-99.99,,2013-04-25 17:02:00,
2013-04-25 11:11:00,56.0,33.0,29.78,WSW,248,10.0,-999.0,41,-99.99,,,-99.99,,2013-04-25 17:11:00,
2013-04-25 11:22:00,57.0,30.0,29.78,WNW,284,14.0,-999.0,35,-99.99,,,-99.99,,2013-04-25 17:22:00,
2013-04-25 11:32:00,58.0,31.0,29.78,West,276,13.0,-999.0,36,-99.99,,,-99.99,,2013-04-25 17:32:00,
2013-04-25 11:42:00,58.0,31.0,29.78,West,276,13.0,-999.0,36,-99.99,,,-99.99,,2013-04-25 17:42:00,
2013-04-25 11:53:00,59.0,32.0,29.77,WNW,283,13.0,-999.0,36,-99.99,,,-99.99,,2013-04-25 17:53:00,
2013-04-25 12:01:00,60.0,31.0,29.77,West,269,14.0,-999.0,33,-99.99,,,-99.99,,2013-04-25 18:01:00,
2013-04-25 12:11:00,60.0,31.0,29.77,West,269,14.0,-999.0,33,-99.99,,,-99.99,,2013-04-25 18:11:00,
2013-04-25 12:22:00,60.0,31.0,29.76,WNW,291,14.0,-999.0,33,-99.99,,,-99.99,,2013-04-25 18:22:00,
2013-04-25 12:32:00,61.0,31.0,29.76,WNW,292,14.0,-999.0,32,-99.99,,,-99.99,,2013-04-25 18:32:00,
2013-04-25 12:42:00,61.0,31.0,29.76,WNW,292,14.0,-999.0,32,-99.99,,,-99.99,,2013-04-25 18:42:00,
2013-04-25 12:52:00,61.0,30.0,29.75,West,279,15.0,-999.0,31,-99.99,,,-99.99,,2013-04-25 18:52:00,
2013-04-25 13:01:00,62.0,29.0,29.75,WSW,257,19.0,-999.0,29,-99.99,,,-99.99,,2013-04-25 19:01:00,
2013-04-25 13:12:00,62.0,29.0,29.75,WSW,257,19.0,-999.0,29,-99.99,,,-99.99,,2013-04-25 19:12:00,
2013-04-25 13:21:00,63.0,30.0,29.74,West,274,15.0,-999.0,29,-99.99,,,-99.99,,2013-04-25 19:21:00,
2013-04-25 13:31:00,63.0,29.0,29.73,WNW,288,17.0,-999.0,27,-99.99,,,-99.99,,2013-04-25 19:31:00,
2013-04-25 13:42:00,63.0,29.0,29.73,WNW,288,17.0,-999.0,27,-99.99,,,-99.99,,2013-04-25 19:42:00,
2013-04-25 13:52:00,62.0,29.0,29.73,WNW,288,18.0,-999.0,28,-99.99,,,-99.99,,2013-04-25 19:52:00,
2013-04-25 14:02:00,62.0,28.0,29.74,WNW,283,21.0,-999.0,27,-99.99,,,-99.99,,2013-04-25 20:02:00,
2013-04-25 14:11:00,62.0,28.0,29.74,WNW,283,21.0,-999.0,27,-99.99,,,-99.99,,2013-04-25 20:11:00,
2013-04-25 14:22:00,63.0,29.0,29.74,WNW,286,19.0,-999.0,28,-99.99,,,-99.99,,2013-04-25 20:22:00,
2013-04-25 14:32:00,63.0,28.0,29.74,West,274,17.0,-999.0,26,-99.99,,,-99.99,,2013-04-25 20:32:00,
2013-04-25 14:42:00,63.0,28.0,29.74,West,274,17.0,-999.0,26,-99.99,,,-99.99,,2013-04-25 20:42:00,
2013-04-25 14:52:00,63.0,29.0,29.74,West,275,16.0,-999.0,27,-99.99,,,-99.99,,2013-04-25 20:52:00,
2013-04-25 15:01:00,62.0,29.0,29.74,West,274,17.0,-999.0,28,-99.99,,,-99.99,,2013-04-25 21:01:00,
2013-04-25 15:11:00,62.0,29.0,29.74,West,274,17.0,-999.0,28,-99.99,,,-99.99,,2013-04-25 21:11:00,
2013-04-25 15:21:00,63.0,29.0,29.73,West,272,16.0,-999.0,27,-99.99,,,-99.99,,2013-04-25 21:21:00,
2013-04-25 15:33:00,64.0,30.0,29.73,West,272,18.0,-999.0,28,-99.99,,,-99.99,,2013-04-25 21:33:00,
2013-04-25 15:42:00,64.0,30.0,29.73,West,272,18.0,-999.0,28,-99.99,,,-99.99,,2013-04-25 21:42:00,
2013-04-25 15:52:00,64.0,29.0,29.73,WNW,284,18.0,-999.0,27,-99.99,,,-99.99,,2013-04-25 21:52:00,
2013-04-25 16:02:00,63.0,29.0,29.73,NW,312,15.0,-999.0,27,-99.99,,,-99.99,,2013-04-25 22:02:00,
2013-04-25 16:12:00,63.0,29.0,29.73,NW,312,15.0,-999.0,27,-99.99,,,-99.99,,2013-04-25 22:12:00,
2013-04-25 16:22:00,64.0,30.0,29.73,NW,305,15.0,-999.0,28,-99.99,,,-99.99,,2013-04-25 22:22:00,
2013-04-25 16:33:00,65.0,29.0,29.73,West,279,15.0,-999.0,26,-99.99,,,-99.99,,2013-04-25 22:33:00,
2013-04-25 16:42:00,65.0,29.0,29.73,West,279,15.0,-999.0,26,-99.99,,,-99.99,,2013-04-25 22:42:00,
2013-04-25 16:52:00,64.0,28.0,29.73,NW,309,16.0,-999.0,26,-99.99,,,-99.99,,2013-04-25 22:52:00,
2013-04-25 17:02:00,64.0,28.0,29.73,West,281,17.0,-999.0,26,-99.99,,,-99.99,,2013-04-25 23:02:00,
2013-04-25 17:12:00,64.0,28.0,29.73,West,281,17.0,-999.0,26,-99.99,,,-99.99,,2013-04-25 23:12:00,
2013-04-25 17:22:00,63.0,28.0,29.73,WNW,297,13.0,-999.0,26,-99.99,,,-99.99,,2013-04-25 23:22:00,
2013-04-25 17:32:00,62.0,28.0,29.74,NW,323,14.0,-999.0,27,-99.99,,,-99.99,,2013-04-25 23:32:00,
2013-04-25 17:42:00,62.0,28.0,29.74,NW,323,14.0,-999.0,27,-99.99,,,-99.99,,2013-04-25 23:42:00,
2013-04-25 17:52:00,62.0,29.0,29.75,NW,310,12.0,-999.0,28,-99.99,,,-99.99,,2013-04-25 23:52:00,
2013-04-25 18:01:00,60.0,28.0,29.76,NW,324,13.0,-999.0,30,-99.99,,,-99.99,,2013-04-26 00:01:00,
2013-04-25 18:11:00,60.0,28.0,29.76,NW,324,13.0,-999.0,30,-99.99,,,-99.99,,2013-04-26 00:11:00,
2013-04-25 18:21:00,60.0,28.0,29.77,NW,317,11.0,-999.0,30,-99.99,,,-99.99,,2013-04-26 00:21:00,
2013-04-25 18:32:00,60.0,28.0,29.77,NNW,331,7.0,-999.0,30,-99.99,,,-99.99,,2013-04-26 00:32:00,
2013-04-25 18:41:00,60.0,28.0,29.77,NNW,331,7.0,-999.0,30,-99.99,,,-99.99,,2013-04-26 00:41:00,
2013-04-25 18:51:00,60.0,29.0,29.77,NNE,13,7.0,-999.0,31,-99.99,,,-99.99,,2013-04-26 00:51:00,
2013-04-25 19:01:00,59.0,29.0,29.78,NNE,21,5.0,-999.0,32,-99.99,,,-99.99,,2013-04-26 01:01:00,
2013-04-25 19:11:00,59.0,29.0,29.78,NNE,21,5.0,-999.0,32,-99.99,,,-99.99,,2013-04-26 01:11:00,
2013-04-25 19:21:00,59.0,29.0,29.78,NNE,30,4.0,-999.0,32,-99.99,,,-99.99,,2013-04-26 01:21:00,
2013-04-25 19:31:00,58.0,30.0,29.78,NNE,28,3.0,-999.0,34,-99.99,,,-99.99,,2013-04-26 01:31:00,
2013-04-25 19:41:00,58.0,30.0,29.78,NNE,28,3.0,-999.0,34,-99.99,,,-99.99,,2013-04-26 01:41:00,
2013-04-25 19:52:00,57.0,29.0,29.79,NNE,28,0.0,-999.0,34,-99.99,,,-99.99,,2013-04-26 01:52:00,
2013-04-25 20:02:00,56.0,29.0,29.80,NNE,28,0.0,-999.0,36,-99.99,,,-99.99,,2013-04-26 02:02:00,
2013-04-25 20:11:00,56.0,29.0,29.80,NNE,28,0.0,-999.0,36,-99.99,,,-99.99,,2013-04-26 02:11:00,
2013-04-25 20:21:00,55.0,30.0,29.80,NNE,28,2.0,-999.0,38,-99.99,,,-99.99,,2013-04-26 02:21:00,
2013-04-25 20:32:00,52.0,28.0,29.81,NNE,28,2.0,-999.0,39,-99.99,,,-99.99,,2013-04-26 02:32:00,
2013-04-25 20:42:00,52.0,28.0,29.81,NNE,28,2.0,-999.0,39,-99.99,,,-99.99,,2013-04-26 02:42:00,
2013-04-25 20:51:00,49.0,28.0,29.81,NNE,28,0.0,-999.0,44,-99.99,,,-99.99,,2013-04-26 02:51:00,
2013-04-25 21:01:00,48.0,28.0,29.82,NNE,28,0.0,-999.0,46,-99.99,,,-99.99,,2013-04-26 03:01:00,
2013-04-25 21:11:00,48.0,28.0,29.82,NNE,28,0.0,-999.0,46,-99.99,,,-99.99,,2013-04-26 03:11:00,
2013-04-25 21:21:00,46.0,27.0,29.82,ENE,74,2.0,-999.0,47,-99.99,,,-99.99,,2013-04-26 03:21:00,
2013-04-25 21:33:00,45.0,27.0,29.84,ENE,78,2.0,-999.0,50,-99.99,,,-99.99,,2013-04-26 03:33:00,
2013-04-25 21:43:00,45.0,27.0,29.84,ENE,78,2.0,-999.0,50,-99.99,,,-99.99,,2013-04-26 03:43:00,
2013-04-25 21:53:00,44.0,28.0,29.84,SE,137,5.0,-999.0,52,-99.99,,,-99.99,,2013-04-26 03:53:00,
2013-04-25 22:02:00,45.0,28.0,29.85,SSE,154,6.0,-999.0,51,-99.99,,,-99.99,,2013-04-26 04:02:00,
2013-04-25 22:12:00,45.0,28.0,29.85,SSE,154,6.0,-999.0,51,-99.99,,,-99.99,,2013-04-26 04:12:00,
2013-04-25 22:22:00,44.0,28.0,29.85,SSE,159,5.0,-999.0,53,-99.99,,,-99.99,,2013-04-26 04:22:00,
2013-04-25 22:32:00,42.0,28.0,29.85,SSE,148,4.0,-999.0,57,-99.99,,,-99.99,,2013-04-26 04:32:00,
2013-04-25 22:43:00,42.0,28.0,29.85,SSE,148,4.0,-999.0,57,-99.99,,,-99.99,,2013-04-26 04:43:00,
2013-04-25 22:52:00,42.0,28.0,29.85,SSE,148,4.0,-999.0,57,-99.99,,,-99.99,,2013-04-26 04:52:00,
2013-04-25 23:02:00,41.0,27.0,29.85,SSE,148,4.0,-999.0,58,-99.99,,,-99.99,,2013-04-26 05:02:00,
2013-04-25 23:12:00,41.0,27.0,29.85,SSE,148,4.0,-999.0,58,-99.99,,,-99.99,,2013-04-26 05:12:00,
2013-04-25 23:22:00,41.0,28.0,29.85,SSE,148,3.0,-999.0,59,-99.99,,,-99.99,,2013-04-26 05:22:00,
2013-04-25 23:32:00,39.0,27.0,29.85,SSE,148,0.0,-999.0,61,-99.99,,,-99.99,,2013-04-26 05:32:00,
2013-04-25 23:42:00,39.0,27.0,29.85,SSE,148,0.0,-999.0,61,-99.99,,,-99.99,,2013-04-26 05:42:00,
2013-04-25 23:52:00,37.0,26.0,29.86,SSE,148,0.0,-999.0,65,-99.99,,,-99.99,,2013-04-26 05:52:00,